THOR ABLESTAR DEB, 416

Orbit data source: Space-Track

THOR ABLESTAR DEB, 416 is space debris in LEO originally from a launch on Thu, 29 Jun 1961 UTC launched from the Air Force Eastern Test Range (AFETR). Debris objects in space refer to the collection of defunct objects orbiting the Earth. Examples of debris include non-operational satellites, rocket bodies, and fragments generated from explosions, collisions, or faulty payload assembly.

Loading next visibility...
Identifier
416, 1961-015ER
Orbit
LEO
Country
Flag of USUS
Related business
Manufacturer
Unknown
Mission
Spacecraft
Bus & Motor
Unknown
Mass
Unknown
Launch date (UTC)
1961-06-29 (64 years ago)
Launch vehicle
Unknown
Launch site
Air Force Eastern Test Range (AFETR)
Object type
Payload
Rocket body
Debris
Shape & HBR
Unknown
Radar Cross Section
Small (<0.1 m²)

Expand to show TLE details & history
Last TLE update: 1 day ago

TLE from 1 day ago
0 THOR ABLESTAR DEB
1 00416U 61015ER  25259.74153475  .00000628  00000-0  36017-3 0  9999
2 00416  66.4966 259.1665 0079358 346.2417  13.6507 14.14410641293173
Epoch: 2025-09-16T17:47Z
TLE epoch observation values (Epoch: 2025-09-16T17:47:48.602Z)
Latitude
-0.00006°
Longitude
-3.71351°
Altitude
790.716 km
Speed
7.487 km/s
True Right ascension
17h 16m 39s
True Declination
0° 00' 00"
Sunlit
Object was in daylight at epoch
Visualization orbit readout
Latitude
Unknown
Longitude
Unknown
Altitude
Unknown
Speed
Unknown
Apparent Right ascension
Unknown
Apparent Declination
Unknown
Sunlit
N/A
Visualization observer readout
Local Sidereal Time
16:58:16
Azimuth
Unknown
Elevation
Unknown
Doppler factor
Unknown
Orbital elements
Apogee altitude
900.031 km
Perigee altitude
785.425 km
Semi-major axis
7,220.865 km
Eccentricity
0.00794
Inclination
66.4966°
RAAN
259.1665°
Arg. of periapsis
346.2417°
True anomaly
13.8674°
Mean anomaly
13.6507°
Eccentric anomaly
13.75884°
Mean motion
3.5372 °/min
Orbital period
101.78 mins
BSTAR
0.00036017
Loading maneuver chart data...
Computing Atmospheric mass density...

Documentation

Showing up to 5 results
|